Starlink 11201

operational
NORAD ID: 60113 Int'l Des: 2024-118 Owner: SPXS Country: US Constellation: starlink
LEOCIRCULAR

关于 Starlink 11201

正在加载描述...

实时位置

正在加载3D地球...

即将过境

高度历史

Altitude vs Time

uPlot chart will show altitude changes over time

两行轨道根数

1 60113U 24118A 25258.56471044 .00001594 00000-0 18001-4 0 9993
2 60113 53.1587 4.8821 0001005 86.6326 273.4807 15.69721973 70482
Epoch: Sep 15, 2025 • Age: 30 hours

当前状态

高度 366.0 km
速度 7.69 km/s
星下点 -21.49°S, 92.16°W
发射日期 Jun 24, 2024
运行时间 1.2 years
类型 internet

技术详情

分类 Payload
质量 960.00 kg
干质量 910.00 kg
总质量 960.00 kg
长度 0.30 m
直径 4.10 m
跨度 29.00 m
形状 Box + pan
制造商 SPXS
平台类型 Starlink V2MD
阶段状态 In Orbit
所有者/国家 SPXS/US

大型星座

Loading constellations...